This demonstration page uses our WeatherBlox Daily Observations layout. Learn more.

Left ArrowRight Arrow

53.62937, 11.41316

Hourly Observations for April 4, 2016

Temp ( °F °C ) Dew Point ( °F °C ) Humidity (%) Winds ( mph kmh ) Pressure ( in mb ) Visibility ( mi km ) Precip ( " mm )
6:20 am 06:20 Mostly Clear 48 9 45 7 87 87 E 6 9 29.77 1008 7 11 N/A
6:50 am 06:50 Mostly Sunny 48 9 45 7 87 87 ENE 7 11 29.77 1008 7 11 N/A
7:20 am 07:20 Mostly Sunny 48 9 45 7 87 87 ENE 6 9 29.77 1008 7 11 N/A
7:50 am 07:50 Mostly Sunny 54 12 46 8 77 77 ENE 7 11 29.77 1008 7 11 N/A
8:20 am 08:20 Mostly Sunny 55 13 46 8 72 72 ENE 6 9 29.77 1008 7 11 N/A
8:50 am 08:50 Mostly Sunny 55 13 46 8 72 72 E 8 13 29.77 1008 7 11 N/A
9:20 am 09:20 Mostly Sunny 57 14 46 8 67 67 ENE 6 9 29.77 1008 7 11 N/A
9:50 am 09:50 Mostly Sunny 57 14 46 8 67 67 ENE 6 9 29.77 1008 7 11 N/A
10:20 am 10:20 Mostly Sunny 59 15 48 9 68 68 ENE 3 6 29.77 1008 7 11 N/A
10:50 am 10:50 Mostly Sunny 61 16 48 9 63 63 E 2 4 29.77 1008 7 11 N/A
11:20 am 11:20 Mostly Sunny 61 16 52 11 72 72 W 5 7 29.77 1008 7 11 N/A
11:50 am 11:50 Mostly Sunny 61 16 50 10 68 68 VRB 3 6 29.77 1008 7 11 N/A
12:20 pm 12:20 Mostly Sunny 63 17 50 10 64 64 WSW 3 6 29.74 1007 7 11 N/A
12:50 pm 12:50 Mostly Sunny 66 19 46 8 49 49 S 9 15 29.74 1007 7 11 N/A
1:20 pm 13:20 Mostly Sunny 66 19 46 8 49 49 SSE 8 13 29.74 1007 7 11 N/A
1:50 pm 13:50 Mostly Sunny 66 19 45 7 46 46 SE 9 15 29.71 1006 7 11 N/A
2:20 pm 14:20 Mostly Sunny 66 19 48 9 52 52 SSE 5 7 29.71 1006 7 11 N/A
2:50 pm 14:50 Mostly Sunny 66 19 48 9 52 52 ESE 8 13 29.71 1006 7 11 N/A
3:20 pm 15:20 Mostly Sunny 68 20 50 10 53 53 VRB 3 6 29.71 1006 7 11 N/A
3:50 pm 15:50 Mostly Sunny 68 20 48 9 49 49 SSE 6 9 29.71 1006 7 11 N/A
4:20 pm 16:20 Mostly Sunny 68 20 48 9 49 49 S 6 9 29.71 1006 7 11 N/A
4:50 pm 16:50 Mostly Sunny 68 20 48 9 49 49 S 6 9 29.71 1006 7 11 N/A
5:20 pm 17:20 Mostly Sunny 68 20 48 9 49 49 S 6 9 29.71 1006 7 11 N/A
5:50 pm 17:50 Mostly Sunny 68 20 50 10 53 53 SE 5 7 29.71 1006 7 11 N/A
6:20 pm 18:20 Mostly Sunny 68 20 48 9 49 49 SSE 6 9 29.71 1006 7 11 N/A
6:50 pm 18:50 Mostly Sunny 66 19 52 11 60 60 SSE 7 11 29.71 1006 7 11 N/A

Powered by AerisWeather